• In Italy
  • List of Countries
  • For 7 days
  • Water Temperature
  • Satellite Maps
  • Weather Map
  • Weather Widgets
  • user-avatar
    Login

    Hourly Weather Fier

    Today, 20 November, Monday

    Time Temperature Precipitation Wind Pressure Humidity
    00:00 +10°C° 0.7 mm 5 mps 757 mmHg 90%
    01:00 +9°C° 0 mm 5 mps 757 mmHg 92%
    02:00 +9°C° 1.2 mm 5 mps 757 mmHg 90%
    03:00 +9°C° 1.2 mm 6 mps 757 mmHg 88%
    04:00 +9°C° 1.2 mm 7 mps 757 mmHg 87%
    05:00 +9°C° 0.5 mm 6 mps 758 mmHg 87%
    06:00 +8°C° 0.5 mm 6 mps 758 mmHg 87%
    07:00 +8°C° 0.5 mm 5 mps 759 mmHg 87%
    08:00 +9°C° 0.1 mm 6 mps 759 mmHg 78%
    09:00 +10°C° 0.1 mm 6 mps 760 mmHg 69%
    10:00 +11°C° 0.1 mm 6 mps 760 mmHg 60%
    11:00 +11°C° 0 mm 6 mps 761 mmHg 57%
    12:00 +11°C° 0 mm 6 mps 761 mmHg 53%
    13:00 +13°C° 0 mm 6 mps 761 mmHg 49%
    14:00 +11°C° 0 mm 6 mps 761 mmHg 53%
    15:00 +10°C° 0 mm 6 mps 762 mmHg 57%
    16:00 +9°C° 0 mm 6 mps 762 mmHg 61%
    17:00 +8°C° 0 mm 5 mps 762 mmHg 63%
    18:00 +7°C° 0 mm 5 mps 763 mmHg 65%
    19:00 +6°C° 0 mm 4 mps 763 mmHg 67%
    20:00 +6°C° 0 mm 4 mps 764 mmHg 67%
    21:00 +5°C° 0 mm 3 mps 764 mmHg 66%
    22:00 +5°C° 0 mm 3 mps 765 mmHg 66%
    23:00 +5°C° 0 mm 3 mps 765 mmHg 65%

    Tomorrow, 21 November, Tuesday

    Time Temperature Precipitation Wind Pressure Humidity
    00:00 +5°C° 0 mm 3 mps 765 mmHg 64%
    01:00 +5°C° 0 mm 3 mps 765 mmHg 62%
    02:00 +6°C° 0 mm 2 mps 765 mmHg 61%
    03:00 +6°C° 0 mm 2 mps 765 mmHg 59%
    04:00 +6°C° 0 mm 2 mps 765 mmHg 58%
    05:00 +6°C° 0 mm 2 mps 765 mmHg 57%
    06:00 +6°C° 0 mm 2 mps 765 mmHg 55%
    07:00 +6°C° 0 mm 2 mps 765 mmHg 54%
    08:00 +8°C° 0 mm 2 mps 765 mmHg 48%
    09:00 +10°C° 0 mm 2 mps 765 mmHg 42%
    10:00 +13°C° 0 mm 2 mps 765 mmHg 36%
    11:00 +13°C° 0 mm 2 mps 765 mmHg 35%
    12:00 +14°C° 0 mm 2 mps 765 mmHg 35%
    13:00 +14°C° 0 mm 1 mps 765 mmHg 35%
    14:00 +13°C° 0 mm 1 mps 764 mmHg 40%
    15:00 +12°C° 0 mm 1 mps 764 mmHg 45%
    16:00 +11°C° 0 mm 1 mps 764 mmHg 50%
    17:00 +10°C° 0 mm 1 mps 765 mmHg 51%
    18:00 +10°C° 0 mm 1 mps 765 mmHg 51%
    19:00 +8°C° 0 mm 2 mps 765 mmHg 52%
    20:00 +8°C° 0 mm 2 mps 765 mmHg 52%
    21:00 +8°C° 0 mm 2 mps 765 mmHg 51%
    22:00 +8°C° 0 mm 2 mps 765 mmHg 51%
    23:00 +8°C° 0 mm 2 mps 765 mmHg 51%

    Day after tomorrow, 22 November, Wednesday

    Time Temperature Precipitation Wind Pressure Humidity
    00:00 +8°C° 0 mm 2 mps 765 mmHg 51%
    01:00 +8°C° 0 mm 2 mps 765 mmHg 52%
    02:00 +8°C° 0 mm 2 mps 765 mmHg 52%
    03:00 +8°C° 0 mm 2 mps 765 mmHg 52%
    04:00 +8°C° 0 mm 1 mps 765 mmHg 52%
    05:00 +8°C° 0 mm 2 mps 765 mmHg 53%
    06:00 +8°C° 0 mm 2 mps 765 mmHg 55%
    07:00 +8°C° 0 mm 2 mps 765 mmHg 56%
    08:00 +11°C° 0 mm 1 mps 766 mmHg 54%
    09:00 +13°C° 0 mm 1 mps 766 mmHg 51%
    10:00 +15°C° 0 mm 1 mps 766 mmHg 49%
    11:00 +15°C° 0 mm 1 mps 765 mmHg 50%
    12:00 +16°C° 0 mm 1 mps 765 mmHg 50%
    13:00 +18°C° 0 mm 1 mps 765 mmHg 50%
    14:00 +15°C° 0 mm 1 mps 765 mmHg 57%
    15:00 +14°C° 0 mm 2 mps 765 mmHg 63%
    16:00 +13°C° 0 mm 2 mps 765 mmHg 69%
    17:00 +13°C° 0 mm 2 mps 765 mmHg 70%
    18:00 +12°C° 0 mm 1 mps 765 mmHg 72%
    19:00 +11°C° 0 mm 1 mps 765 mmHg 74%
    20:00 +11°C° 0 mm 1 mps 765 mmHg 73%
    21:00 +11°C° 0 mm 1 mps 766 mmHg 72%
    22:00 +11°C° 0 mm 1 mps 766 mmHg 71%
    23:00 +11°C° 0 mm 1 mps 766 mmHg 70%

    23 November, Thursday

    Time Temperature Precipitation Wind Pressure Humidity
    00:00 +11°C° 0 mm 1 mps 766 mmHg 69%
    01:00 +11°C° 0 mm 1 mps 766 mmHg 69%
    02:00 +11°C° 0 mm 1 mps 765 mmHg 68%
    03:00 +10°C° 0 mm 1 mps 765 mmHg 68%
    04:00 +10°C° 0 mm 1 mps 765 mmHg 67%
    05:00 +10°C° 0 mm 1 mps 765 mmHg 67%
    06:00 +10°C° 0 mm 1 mps 766 mmHg 67%
    07:00 +9°C° 0 mm 2 mps 766 mmHg 67%
    08:00 +12°C° 0 mm 1 mps 766 mmHg 61%
    09:00 +15°C° 0 mm 1 mps 766 mmHg 55%
    10:00 +18°C° 0 mm 1 mps 766 mmHg 49%
    11:00 +18°C° 0 mm 1 mps 766 mmHg 48%
    12:00 +18°C° 0 mm 2 mps 765 mmHg 47%
    13:00 +18°C° 0 mm 2 mps 765 mmHg 45%
    14:00 +17°C° 0 mm 2 mps 765 mmHg 52%
    15:00 +16°C° 0 mm 2 mps 765 mmHg 59%
    16:00 +14°C° 0 mm 2 mps 765 mmHg 65%
    17:00 +14°C° 0 mm 2 mps 766 mmHg 67%
    18:00 +13°C° 0 mm 2 mps 766 mmHg 69%
    19:00 +12°C° 0 mm 2 mps 766 mmHg 70%
    20:00 +12°C° 0 mm 2 mps 766 mmHg 68%
    21:00 +12°C° 0 mm 1 mps 767 mmHg 66%
    22:00 +12°C° 0 mm 1 mps 767 mmHg 65%
    23:00 +11°C° 0 mm 1 mps 767 mmHg 63%

    24 November, Friday

    Time Temperature Precipitation Wind Pressure Humidity
    00:00 +11°C° 0 mm 1 mps 766 mmHg 62%
    01:00 +10°C° 0 mm 2 mps 766 mmHg 61%
    02:00 +11°C° 0 mm 1 mps 766 mmHg 60%
    03:00 +11°C° 0 mm 1 mps 766 mmHg 60%
    04:00 +11°C° 0 mm 1 mps 766 mmHg 59%
    05:00 +11°C° 0 mm 1 mps 766 mmHg 59%
    06:00 +11°C° 0 mm 1 mps 766 mmHg 59%
    07:00 +10°C° 0 mm 1 mps 766 mmHg 59%
    08:00 +12°C° 0 mm 1 mps 766 mmHg 54%
    09:00 +14°C° 0 mm 1 mps 766 mmHg 50%
    10:00 +16°C° 0 mm 1 mps 766 mmHg 46%
    11:00 +17°C° 0 mm 2 mps 766 mmHg 47%
    12:00 +18°C° 0 mm 2 mps 766 mmHg 47%
    13:00 +18°C° 0 mm 3 mps 766 mmHg 48%
    14:00 +17°C° 0 mm 3 mps 766 mmHg 56%
    15:00 +14°C° 0 mm 3 mps 766 mmHg 64%
    16:00 +13°C° 0 mm 3 mps 766 mmHg 73%
    17:00 +12°C° 0 mm 3 mps 766 mmHg 76%
    18:00 +12°C° 0 mm 3 mps 766 mmHg 79%
    19:00 +12°C° 0 mm 2 mps 766 mmHg 82%
    20:00 +12°C° 0 mm 2 mps 767 mmHg 80%
    21:00 +10°C° 0 mm 2 mps 767 mmHg 78%
    22:00 +10°C° 0 mm 2 mps 767 mmHg 76%
    23:00 +10°C° 0 mm 2 mps 767 mmHg 74%

    25 November, Saturday

    Time Temperature Precipitation Wind Pressure Humidity
    00:00 +10°C° 0 mm 2 mps 767 mmHg 71%
    01:00 +10°C° 0 mm 2 mps 767 mmHg 69%
    02:00 +10°C° 0 mm 2 mps 767 mmHg 68%
    03:00 +10°C° 0 mm 2 mps 767 mmHg 67%
    04:00 +9°C° 0 mm 2 mps 767 mmHg 66%
    05:00 +9°C° 0 mm 2 mps 767 mmHg 66%
    06:00 +9°C° 0 mm 2 mps 767 mmHg 65%
    07:00 +9°C° 0 mm 2 mps 767 mmHg 65%
    08:00 +13°C° 0 mm 1 mps 767 mmHg 59%
    09:00 +15°C° 0 mm 1 mps 767 mmHg 53%
    10:00 +18°C° 0 mm 1 mps 767 mmHg 48%
    11:00 +19°C° 0 mm 1 mps 767 mmHg 46%
    12:00 +19°C° 0 mm 1 mps 767 mmHg 45%
    13:00 +20°C° 0 mm 1 mps 766 mmHg 44%
    14:00 +19°C° 0 mm 1 mps 766 mmHg 51%
    15:00 +16°C° 0 mm 1 mps 766 mmHg 57%
    16:00 +15°C° 0 mm 1 mps 766 mmHg 64%
    17:00 +14°C° 0 mm 1 mps 767 mmHg 66%
    18:00 +13°C° 0 mm 1 mps 767 mmHg 69%
    19:00 +13°C° 0 mm 1 mps 767 mmHg 71%
    20:00 +12°C° 0 mm 1 mps 767 mmHg 71%
    21:00 +12°C° 0 mm 1 mps 767 mmHg 70%
    22:00 +12°C° 0 mm 1 mps 768 mmHg 70%
    23:00 +12°C° 0 mm 1 mps 768 mmHg 70%
    Show more